Location: Newark
(53.3333°N, 83.7500°E)
Time: 00:26:51
(UTC+00:00)

Vanguard 2 - Pass Details

Date: 25 November 2019
Orbit: 553 x 2938 km, 32.9° (Epoch: 07 December)

Event Time Altitude Azimuth Distance (km) Brightness Sun altitude
Rises 04:03:16 0° 251° (WSW) 5,430 11.7 10.9°
Reaches altitude 10° 04:09:02 10° 233° (SW) 3,884 11.3 11.4°
Maximum altitude 04:14:11 16° 201° (SSW) 2,924 11.2 11.7°
Drops below altitude 10° 04:18:16 10° 166° (SSE) 2,923 12.6 12.0°
Sets 04:21:40 0° 144° (SE) 3,521 12.8 12.2°
